Regional Weather Roundup
Issued by NWS Upton, NY

Current Version | Previous Version | Graphics & Text | Print | Product List | Glossary Off
Versions: 1 2 3 4 5 6 7 8 9 10 11 12 13 14 15 16 17 18 19 20 21 22 23 24 25 26 27 28 29 30 31 32 33 34 35 36 37 38 39 40 41 42 43 44 45 46 47 48 49 50

000
ASUS41 KOKX 051405
RWROKX

REGIONAL WEATHER ROUNDUP
NATIONAL WEATHER SERVICE NEW YORK NY
900 AM EST THU MAR 05 2015

NOTE: "FAIR" INDICATES FEW OR NO CLOUDS BELOW 12,000 FEET WITH NO
SIGNIFICANT WEATHER AND/OR OBSTRUCTIONS TO VISIBILITY.

NYZ071-072-176-178-NJZ106-104-051500-
NEW YORK CITY METRO AREA


CITY           SKY/WX    TMP DP  RH WIND       PRES   REMARKS
CENTRAL PARK   SNOW      28  26  92 NE12G17   30.13R VSB 1/4 WCI  18
LAGUARDIA APRT SNOW      29  26  89 N16       30.11R VSB 1/2 WCI  17
KENNEDY INTL   LGT SNOW  31  28  89 N16       30.11R VSB 3/4 WCI  20
NEWARK/LIBERTY LGT SNOW  31  28  89 N12       30.11R VSB 3/4 WCI  22
BRNX BOT. GARD   N/A    N/A N/A N/A NW9       30.13R
TETERBORO      SNOW      28  25  86 VRB7      30.11R VSB 1/4 WCI  21
$$

NYZ177-179-078>081-051500-
LONG ISLAND NEW YORK

CITY           SKY/WX    TMP DP  RH WIND       PRES   REMARKS
FARMINGDALE    LGT SNOW  27  25  92 N15       30.11R VSB 3/4 WCI  15
ISLIP          SNOW      28  26  92 N10       30.08R VSB 1/2 WCI  19
SHIRLEY        SNOW      27  25  92 N14G22    30.11R VSB 1/2 WCI  16
WESTHAMPTON    SNOW      28  25  88 N17G23    30.09R VSB 1/4 WCI  16
MONTAUK POINT    N/A     32  29  88 NW10      30.07R WCI  24
$$

NYZ052-065-067-051500-
HUDSON VALLEY

CITY           SKY/WX    TMP DP  RH WIND       PRES   REMARKS
WHITE PLAINS   SNOW      25  22  88 N9        30.09R VSB 1/2 WCI  15
NEWBURGH       LGT SNOW  27  19  74 VRB6      30.12R WCI  20
MONTGOMERY     CLOUDY    26  10  50 NW14G21   30.11R WCI  14
POUGHKEEPSIE   CLOUDY    28  12  51 N12G20    30.13R WCI  18
ALBANY         CLOUDY    22   5  48 NW16      30.14R WCI   8
$$

NJZ001-105-106-008-010-013-015-019>022-104-051500-
NEW JERSEY

CITY           SKY/WX    TMP DP  RH WIND       PRES   REMARKS
NEWARK/LIBERTY LGT SNOW  31  28  89 N12       30.11R VSB 3/4 WCI  22
TETERBORO      SNOW      28  25  86 VRB7      30.11R VSB 1/4 WCI  21
CALDWELL       LGT SNOW  28  24  85 N6        30.12R VSB 3/4 WCI  22
MORRISTOWN     LGT SNOW  28  27  93 N9        30.13R VSB 1   WCI  20
SOMERVILLE     SNOW      30  26  85 N10       30.09R VSB 1/2 WCI  21
SUSSEX         LGT SNOW  24  18  77 N14       30.12R VSB 3/4 WCI  12
ANDOVER          N/A     24  21  88 N9G18     30.10R WCI  14
TRENTON        SNOW      30  27  88 N12G31    30.09R VSB 1/2 WCI  20
MILLVILLE      RAIN      34  32  92 N6        30.09R WCI  29
ATLANTIC CITY  LGT RAIN  33  31  92 N9        30.10R VSB 1   WCI  25
WRIGHTSTOWN    LGT SNOW  32  32  99 NW14      30.07R FOG     WCI  22
TOMS RIVER     CLOUDY    36  30  80 N8        30.09R VSB 1   WCI  29
BELMAR         CLOUDY    32  27  80 N9        30.08R VSB 3/4 WCI  24
$$

PAZ047>061-062-071-051500-
EASTERN PENNSYLVANIA

CITY           SKY/WX    TMP DP  RH WIND       PRES   REMARKS
PHILADELPHIA   SNOW      32  30  92 N7        30.12S VSB 1/2 WCI  26
ALLENTOWN      SNOW      26  21  81 N14       30.13R VSB 1/2 WCI  14
SCRANTON       CLOUDY    19   6  57 N13       30.14R WCI   6
$$

CTZ002-004>006-009-010-012-RIZ004-006-007-MAZ004-011-015-051500-
SOUTHERN NEW ENGLAND
 IN CT

CITY           SKY/WX    TMP DP  RH WIND       PRES   REMARKS
BRADLEY INTL   CLOUDY    30  12  47 NW12      30.07R WCI  20
HARTFORD       FLURRIES  29  15  56 NW9G24    30.10R WCI  20
DANBURY        LGT SNOW  23  17  78 N10       30.12R VSB 3/4 WCI  12
WTRBRY/OXFORD  LGT SNOW  23  12  63 N14G20    30.09R FOG     WCI  11
BRIDGEPORT     LGT SNOW  26  23  88 N8        30.12R VSB 3/4 WCI  18
MERIDEN        LGT SNOW  27  18  69 N12       30.11R WCI  17
NEW HAVEN      LGT SNOW  26  23  88 N8        30.10R FOG     WCI  18
CHESTER        LGT SNOW  28  25  86 N6        30.06R VSB 3/4 WCI  22
GROTON         SNOW      28  26  92 NW13      30.06R VSB 1/2 WCI  17
WILLIMANTIC    LGT SNOW  28  20  71 NW10G20   30.07R WCI  19

 IN RI

CITY           SKY/WX    TMP DP  RH WIND       PRES   REMARKS
PROVIDENCE     SNOW      30  27  88 N10       30.05R VSB 1/2 WCI  21
BLOCK ISLAND   CLOUDY    30  27  86 N12G17    30.04R VSB 1   WCI  21
WESTERLY       LGT SNOW  30  27  88 NW7       30.06R VSB 3/4 WCI  23

 IN MA

CITY           SKY/WX    TMP DP  RH WIND       PRES   REMARKS
BOSTON         CLOUDY    33  13  43 NW10      30.03R WCI  25
WORCESTER      CLOUDY    27   9  46 NW12      30.00R WCI  17
WESTFIELD      CLOUDY    29   9  43 NW14      30.07R WCI  18
PROVINCETOWN   CLOUDY    30  25  80 NW17G23   30.04R WCI  18
NANTUCKET      LGT SNOW  32  31  96 NW10      30.01R VSB 3/4 WCI  24
$$

ANZ330-335-338-340-345-350-353-355-051500-
COASTAL MARINE OBSERVATIONS


STATION/POSITION TIME  SKY/WX   TEMP    WIND        PRES    VSBY  WAVE
                                AIR SEA DIR/SP/G                  HT/PER
                 (UTC)          (F)     (DEG/KT/KT) (MB)    (MI)  (FT/S)
NY HARB ENTRANCE 1400            33 37  340/ 14/ 16 1018.3          3/ 9
4S FIRE IS       1400               32                N/A           3/ 9
20S FIRE ISLAND  1300               36              1017.5          4/ 8
23SW MTP         1400                                 N/A           4/ 9
HUDSON CANYON    NOT AVBL
EXECUTION ROCKS  NOT AVBL
WESTERN LI SOUND NOT AVBL
CENTRAL LI SOUND NOT AVBL
EASTERN LI SOUND NOT AVBL
ROBBINS REEF     1400            30     320/ 14/ 17 1018.0
$$


>>>>>>>>>>>>>>>>>>>>>>>>>>>> KEY <<<<<<<<<<<<<<<<<<<<<<<<<<<
>                                                          <
>     SKY/WX - SKY CONDITION/PRESENT WEATHER               <
>     TMP    - TEMPERATURE IN FAHRENHEIT                   <
>     DP     - DEWPOINT IN FAHRENHEIT                      <
>     RH     - RELATIVE HUMIDITY IN PERCENT                <
>     WIND   - DIRECTION AND SPEED IN MPH                  <
>     PRES   - MEAN SEA LEVEL PRESSURE IN INCHES OF HG     <
>     WCI    - WIND CHILL INDEX                            <
>     VSB    - VISIBILITY IN MILES                         <
>     HX     - HEAT INDEX                                  <
>     TC     - TEMPERATURE IN CELSIUS                      <
>     VRB    - VARIABLE WIND DIRECTION                     <
>                                                          <
>>>>>>>>>>>>>>>>>>>>>>>>>>>> KEY <<<<<<<<<<<<<<<<<<<<<<<<<<<





USA.gov is the U.S. government's official web portal to all federal, state and local government web resources and services.